Time,TemperatureF,DewpointF,PressureIn,WindDirection,WindDirectionDegrees,WindSpeedMPH,WindSpeedGustMPH,Humidity,HourlyPrecipIn,Conditions,Clouds,dailyrainin,SoftwareType,DateUTC
2013-08-08 00:01:00,81.0,78.4,30.00,WNW,294,0.0,1.0,92,0.00,,,0.00,WUHU216DAVISVP2,2013-08-08 04:01:00,
2013-08-08 00:06:00,81.0,78.4,30.00,WNW,294,0.0,0.0,92,0.00,,,0.00,WUHU216DAVISVP2,2013-08-08 04:06:00,
2013-08-08 00:11:00,80.9,78.3,30.00,WNW,294,0.0,0.0,92,0.00,,,0.00,WUHU216DAVISVP2,2013-08-08 04:11:00,
2013-08-08 00:16:00,80.9,78.3,30.00,WNW,294,0.0,0.0,92,0.00,,,0.00,WUHU216DAVISVP2,2013-08-08 04:16:00,
2013-08-08 00:21:00,80.8,78.2,30.00,WNW,294,0.0,0.0,92,0.00,,,0.00,WUHU216DAVISVP2,2013-08-08 04:21:00,
2013-08-08 00:26:00,80.7,78.5,30.00,WNW,294,0.0,0.0,93,0.00,,,0.00,WUHU216DAVISVP2,2013-08-08 04:26:00,
2013-08-08 00:31:00,80.7,78.5,30.00,WNW,294,0.0,0.0,93,0.00,,,0.00,WUHU216DAVISVP2,2013-08-08 04:31:00,
2013-08-08 00:36:00,80.6,78.0,29.99,WNW,294,0.0,0.0,92,0.00,,,0.00,WUHU216DAVISVP2,2013-08-08 04:36:00,
2013-08-08 00:41:00,80.6,78.4,29.99,WNW,294,0.0,0.0,93,0.00,,,0.00,WUHU216DAVISVP2,2013-08-08 04:41:00,
2013-08-08 00:46:00,80.5,78.3,29.99,WNW,294,0.0,0.0,93,0.00,,,0.00,WUHU216DAVISVP2,2013-08-08 04:46:00,
2013-08-08 00:51:00,80.4,78.2,29.99,WNW,294,0.0,0.0,93,0.00,,,0.00,WUHU216DAVISVP2,2013-08-08 04:51:00,
2013-08-08 00:56:00,80.3,78.1,29.99,WNW,294,0.0,0.0,93,0.00,,,0.00,WUHU216DAVISVP2,2013-08-08 04:56:00,
2013-08-08 01:01:00,80.3,78.1,29.99,WNW,294,0.0,0.0,93,0.00,,,0.00,WUHU216DAVISVP2,2013-08-08 05:01:00,
2013-08-08 01:06:00,80.3,78.1,29.98,WNW,294,0.0,0.0,93,0.00,,,0.00,WUHU216DAVISVP2,2013-08-08 05:06:00,
2013-08-08 01:11:00,80.2,78.0,29.99,WNW,294,0.0,0.0,93,0.00,,,0.00,WUHU216DAVISVP2,2013-08-08 05:11:00,
2013-08-08 01:16:00,80.1,77.9,29.99,WNW,294,0.0,0.0,93,0.00,,,0.00,WUHU216DAVISVP2,2013-08-08 05:16:00,
2013-08-08 01:21:00,80.1,77.9,29.99,WNW,294,0.0,0.0,93,0.00,,,0.00,WUHU216DAVISVP2,2013-08-08 05:21:00,
2013-08-08 01:26:00,80.1,77.9,29.99,WNW,294,0.0,0.0,93,0.00,,,0.00,WUHU216DAVISVP2,2013-08-08 05:26:00,
2013-08-08 01:31:00,80.0,78.1,29.99,WNW,294,0.0,0.0,94,0.00,,,0.00,WUHU216DAVISVP2,2013-08-08 05:31:00,
2013-08-08 01:36:00,80.0,78.1,29.99,WNW,294,0.0,0.0,94,0.00,,,0.00,WUHU216DAVISVP2,2013-08-08 05:36:00,
2013-08-08 01:41:00,80.0,78.1,29.99,WNW,294,0.0,0.0,94,0.00,,,0.00,WUHU216DAVISVP2,2013-08-08 05:41:00,
2013-08-08 01:46:00,79.8,77.9,29.99,WNW,294,0.0,0.0,94,0.00,,,0.00,WUHU216DAVISVP2,2013-08-08 05:46:00,
2013-08-08 01:51:00,79.8,77.9,29.98,WNW,294,0.0,0.0,94,0.00,,,0.00,WUHU216DAVISVP2,2013-08-08 05:51:00,
2013-08-08 01:56:00,79.8,77.9,29.98,WNW,294,0.0,0.0,94,0.00,,,0.00,WUHU216DAVISVP2,2013-08-08 05:56:00,
2013-08-08 02:01:00,79.8,77.9,29.98,WNW,294,0.0,0.0,94,0.00,,,0.00,WUHU216DAVISVP2,2013-08-08 06:01:00,
2013-08-08 02:06:00,79.7,77.8,29.98,WNW,294,0.0,0.0,94,0.00,,,0.00,WUHU216DAVISVP2,2013-08-08 06:06:00,
2013-08-08 02:11:00,79.7,77.8,29.98,WNW,294,0.0,0.0,94,0.00,,,0.00,WUHU216DAVISVP2,2013-08-08 06:11:00,
2013-08-08 02:16:00,79.6,77.7,29.98,WNW,294,0.0,0.0,94,0.00,,,0.00,WUHU216DAVISVP2,2013-08-08 06:16:00,
2013-08-08 02:21:00,79.6,77.7,29.98,WNW,294,0.0,0.0,94,0.00,,,0.00,WUHU216DAVISVP2,2013-08-08 06:21:00,
2013-08-08 02:26:00,79.5,77.6,29.98,WNW,294,0.0,0.0,94,0.00,,,0.00,WUHU216DAVISVP2,2013-08-08 06:26:00,
2013-08-08 02:31:00,79.5,77.6,29.98,WNW,294,0.0,0.0,94,0.00,,,0.00,WUHU216DAVISVP2,2013-08-08 06:31:00,
2013-08-08 02:36:00,79.4,77.5,29.98,WNW,294,0.0,0.0,94,0.00,,,0.00,WUHU216DAVISVP2,2013-08-08 06:36:00,
2013-08-08 02:41:00,79.5,77.9,29.98,WNW,294,0.0,0.0,95,0.00,,,0.00,WUHU216DAVISVP2,2013-08-08 06:41:00,
2013-08-08 02:46:00,79.5,77.9,29.98,WNW,294,0.0,0.0,95,0.00,,,0.00,WUHU216DAVISVP2,2013-08-08 06:46:00,
2013-08-08 02:51:00,79.5,77.9,29.98,WNW,294,0.0,0.0,95,0.00,,,0.00,WUHU216DAVISVP2,2013-08-08 06:51:00,
2013-08-08 02:56:00,79.4,77.8,29.97,WNW,294,0.0,0.0,95,0.00,,,0.00,WUHU216DAVISVP2,2013-08-08 06:56:00,
2013-08-08 03:01:00,79.4,77.8,29.97,WNW,294,0.0,0.0,95,0.00,,,0.00,WUHU216DAVISVP2,2013-08-08 07:01:00,
2013-08-08 03:06:00,79.4,77.8,29.97,WNW,294,0.0,0.0,95,0.00,,,0.00,WUHU216DAVISVP2,2013-08-08 07:06:00,
2013-08-08 03:11:00,79.4,77.8,29.97,WNW,294,0.0,0.0,95,0.00,,,0.00,WUHU216DAVISVP2,2013-08-08 07:11:00,
2013-08-08 03:16:00,79.3,77.7,29.97,WNW,294,0.0,0.0,95,0.00,,,0.00,WUHU216DAVISVP2,2013-08-08 07:16:00,
2013-08-08 03:21:00,79.4,77.8,29.97,WNW,294,0.0,0.0,95,0.00,,,0.00,WUHU216DAVISVP2,2013-08-08 07:21:00,
2013-08-08 03:26:00,79.3,77.7,29.97,WNW,294,0.0,0.0,95,0.00,,,0.00,WUHU216DAVISVP2,2013-08-08 07:26:00,
2013-08-08 03:31:00,79.4,77.8,29.97,WNW,294,0.0,0.0,95,0.00,,,0.00,WUHU216DAVISVP2,2013-08-08 07:31:00,
2013-08-08 03:36:00,79.5,78.2,29.97,WNW,294,0.0,0.0,96,0.00,,,0.00,WUHU216DAVISVP2,2013-08-08 07:36:00,
2013-08-08 03:41:00,79.6,78.0,29.97,WNW,294,0.0,0.0,95,0.00,,,0.00,WUHU216DAVISVP2,2013-08-08 07:41:00,
2013-08-08 03:46:00,79.6,78.0,29.97,WNW,294,0.0,0.0,95,0.00,,,0.00,WUHU216DAVISVP2,2013-08-08 07:46:00,
2013-08-08 03:51:00,79.6,78.0,29.97,WNW,294,0.0,0.0,95,0.00,,,0.00,WUHU216DAVISVP2,2013-08-08 07:51:00,
2013-08-08 03:56:00,79.5,77.9,29.97,WNW,294,0.0,0.0,95,0.00,,,0.00,WUHU216DAVISVP2,2013-08-08 07:56:00,
2013-08-08 04:01:00,79.5,77.9,29.97,WNW,294,0.0,0.0,95,0.00,,,0.00,WUHU216DAVISVP2,2013-08-08 08:01:00,
2013-08-08 04:06:00,79.4,77.8,29.97,WNW,294,0.0,0.0,95,0.00,,,0.00,WUHU216DAVISVP2,2013-08-08 08:06:00,
2013-08-08 04:11:00,79.4,77.8,29.97,WNW,294,0.0,0.0,95,0.00,,,0.00,WUHU216DAVISVP2,2013-08-08 08:11:00,
2013-08-08 04:16:00,79.4,77.8,29.96,WNW,294,0.0,0.0,95,0.00,,,0.00,WUHU216DAVISVP2,2013-08-08 08:16:00,
2013-08-08 04:21:00,79.3,77.7,29.97,WNW,294,0.0,0.0,95,0.00,,,0.00,WUHU216DAVISVP2,2013-08-08 08:21:00,
2013-08-08 04:26:00,79.3,77.7,29.97,WNW,294,0.0,0.0,95,0.00,,,0.00,WUHU216DAVISVP2,2013-08-08 08:26:00,
2013-08-08 04:31:00,79.3,77.7,29.97,WNW,294,0.0,0.0,95,0.00,,,0.00,WUHU216DAVISVP2,2013-08-08 08:31:00,
2013-08-08 04:36:00,79.3,77.7,29.97,WNW,294,0.0,0.0,95,0.00,,,0.00,WUHU216DAVISVP2,2013-08-08 08:36:00,
2013-08-08 04:41:00,79.2,77.6,29.97,WNW,294,0.0,0.0,95,0.00,,,0.00,WUHU216DAVISVP2,2013-08-08 08:41:00,
2013-08-08 04:46:00,79.2,77.6,29.96,WNW,294,0.0,0.0,95,0.00,,,0.00,WUHU216DAVISVP2,2013-08-08 08:46:00,
2013-08-08 04:51:00,79.2,77.6,29.96,WNW,294,0.0,0.0,95,0.00,,,0.00,WUHU216DAVISVP2,2013-08-08 08:51:00,
2013-08-08 04:56:00,79.2,77.6,29.97,WNW,294,0.0,0.0,95,0.00,,,0.00,WUHU216DAVISVP2,2013-08-08 08:56:00,
2013-08-08 05:01:00,79.2,77.6,29.97,WNW,294,0.0,0.0,95,0.00,,,0.00,WUHU216DAVISVP2,2013-08-08 09:01:00,
2013-08-08 05:06:00,79.1,77.5,29.97,WNW,294,0.0,0.0,95,0.00,,,0.00,WUHU216DAVISVP2,2013-08-08 09:06:00,
2013-08-08 05:12:00,79.0,77.4,29.97,WNW,294,0.0,0.0,95,0.00,,,0.00,WUHU216DAVISVP2,2013-08-08 09:12:00,
2013-08-08 05:17:00,79.0,77.4,29.97,WNW,294,0.0,0.0,95,0.00,,,0.00,WUHU216DAVISVP2,2013-08-08 09:17:00,
2013-08-08 05:22:00,79.0,77.4,29.97,WNW,294,0.0,0.0,95,0.00,,,0.00,WUHU216DAVISVP2,2013-08-08 09:22:00,
2013-08-08 05:27:00,78.9,77.3,29.97,WNW,294,0.0,0.0,95,0.00,,,0.00,WUHU216DAVISVP2,2013-08-08 09:27:00,
2013-08-08 05:32:00,78.8,77.2,29.97,WNW,294,0.0,0.0,95,0.00,,,0.00,WUHU216DAVISVP2,2013-08-08 09:32:00,
2013-08-08 05:37:00,78.7,77.1,29.98,WNW,294,0.0,0.0,95,0.00,,,0.00,WUHU216DAVISVP2,2013-08-08 09:37:00,
2013-08-08 05:42:00,78.7,77.1,29.97,WNW,294,0.0,0.0,95,0.00,,,0.00,WUHU216DAVISVP2,2013-08-08 09:42:00,
2013-08-08 05:47:00,78.6,77.0,29.97,WNW,294,0.0,0.0,95,0.00,,,0.00,WUHU216DAVISVP2,2013-08-08 09:47:00,
2013-08-08 05:52:00,78.5,76.9,29.98,WNW,294,0.0,0.0,95,0.00,,,0.00,WUHU216DAVISVP2,2013-08-08 09:52:00,
2013-08-08 05:57:00,78.5,76.9,29.98,WNW,294,0.0,0.0,95,0.00,,,0.00,WUHU216DAVISVP2,2013-08-08 09:57:00,
2013-08-08 06:02:00,78.5,77.2,29.97,WNW,294,0.0,0.0,96,0.00,,,0.00,WUHU216DAVISVP2,2013-08-08 10:02:00,
2013-08-08 06:07:00,78.5,77.2,29.98,WNW,294,0.0,0.0,96,0.00,,,0.00,WUHU216DAVISVP2,2013-08-08 10:07:00,
2013-08-08 06:12:00,78.5,77.2,29.97,WNW,294,0.0,0.0,96,0.00,,,0.00,WUHU216DAVISVP2,2013-08-08 10:12:00,
2013-08-08 06:17:00,78.5,77.2,29.97,WNW,294,0.0,0.0,96,0.00,,,0.00,WUHU216DAVISVP2,2013-08-08 10:17:00,
2013-08-08 06:22:00,78.5,77.2,29.97,WNW,294,0.0,0.0,96,0.00,,,0.00,WUHU216DAVISVP2,2013-08-08 10:22:00,
2013-08-08 06:27:00,78.5,77.2,29.98,WNW,294,0.0,0.0,96,0.00,,,0.00,WUHU216DAVISVP2,2013-08-08 10:27:00,
2013-08-08 06:32:00,78.6,77.3,29.98,WNW,294,0.0,0.0,96,0.00,,,0.00,WUHU216DAVISVP2,2013-08-08 10:32:00,
2013-08-08 06:37:00,78.6,77.3,29.98,WNW,294,0.0,0.0,96,0.00,,,0.00,WUHU216DAVISVP2,2013-08-08 10:37:00,
2013-08-08 06:42:00,78.6,77.3,29.98,WNW,294,0.0,0.0,96,0.00,,,0.00,WUHU216DAVISVP2,2013-08-08 10:42:00,
2013-08-08 06:47:00,78.6,77.3,29.98,WNW,294,0.0,0.0,96,0.00,,,0.00,WUHU216DAVISVP2,2013-08-08 10:47:00,
2013-08-08 06:52:00,78.6,77.3,29.98,WNW,294,0.0,0.0,96,0.00,,,0.00,WUHU216DAVISVP2,2013-08-08 10:52:00,
2013-08-08 06:57:00,78.5,77.2,29.98,WNW,294,0.0,0.0,96,0.00,,,0.00,WUHU216DAVISVP2,2013-08-08 10:57:00,
2013-08-08 07:02:00,78.5,77.6,29.98,WNW,294,0.0,0.0,97,0.00,,,0.00,WUHU216DAVISVP2,2013-08-08 11:02:00,
2013-08-08 07:07:00,78.5,77.6,29.98,WNW,294,0.0,0.0,97,0.00,,,0.00,WUHU216DAVISVP2,2013-08-08 11:07:00,
2013-08-08 07:12:00,78.5,77.6,29.98,WNW,294,0.0,0.0,97,0.00,,,0.00,WUHU216DAVISVP2,2013-08-08 11:12:00,
2013-08-08 07:17:00,78.5,77.6,29.99,WNW,294,0.0,0.0,97,0.00,,,0.00,WUHU216DAVISVP2,2013-08-08 11:17:00,
2013-08-08 07:22:00,78.5,77.6,29.99,WNW,294,0.0,0.0,97,0.00,,,0.00,WUHU216DAVISVP2,2013-08-08 11:22:00,
2013-08-08 07:27:00,78.5,77.6,29.99,WNW,294,0.0,0.0,97,0.00,,,0.00,WUHU216DAVISVP2,2013-08-08 11:27:00,
2013-08-08 07:32:00,78.5,77.6,29.99,WNW,294,0.0,0.0,97,0.00,,,0.00,WUHU216DAVISVP2,2013-08-08 11:32:00,
2013-08-08 07:37:00,78.6,77.7,29.99,WNW,294,0.0,0.0,97,0.00,,,0.00,WUHU216DAVISVP2,2013-08-08 11:37:00,
2013-08-08 07:42:00,78.6,77.7,29.99,WNW,294,0.0,0.0,97,0.00,,,0.00,WUHU216DAVISVP2,2013-08-08 11:42:00,
2013-08-08 07:47:00,78.8,77.9,29.99,WNW,294,0.0,0.0,97,0.00,,,0.00,WUHU216DAVISVP2,2013-08-08 11:47:00,
2013-08-08 07:52:00,79.1,78.5,29.99,WNW,294,0.0,0.0,98,0.00,,,0.00,WUHU216DAVISVP2,2013-08-08 11:52:00,
2013-08-08 07:57:00,79.4,78.8,29.99,WNW,294,0.0,0.0,98,0.00,,,0.00,WUHU216DAVISVP2,2013-08-08 11:57:00,
2013-08-08 08:02:00,79.6,78.7,29.99,WNW,294,0.0,0.0,97,0.00,,,0.00,WUHU216DAVISVP2,2013-08-08 12:02:00,
2013-08-08 08:07:00,79.8,78.8,29.99,WNW,294,0.0,0.0,97,0.00,,,0.00,WUHU216DAVISVP2,2013-08-08 12:07:00,
2013-08-08 08:12:00,80.0,79.0,29.99,WNW,294,0.0,0.0,97,0.00,,,0.00,WUHU216DAVISVP2,2013-08-08 12:12:00,
2013-08-08 08:17:00,80.3,79.3,29.99,NW,321,0.0,1.0,97,0.00,,,0.00,WUHU216DAVISVP2,2013-08-08 12:17:00,
2013-08-08 08:22:00,80.5,79.2,29.99,NNW,330,1.0,2.0,96,0.00,,,0.00,WUHU216DAVISVP2,2013-08-08 12:22:00,
2013-08-08 08:27:00,80.7,79.1,30.00,NNW,330,0.0,2.0,95,0.00,,,0.00,WUHU216DAVISVP2,2013-08-08 12:27:00,
2013-08-08 08:32:00,81.1,79.5,30.00,WNW,299,0.0,1.0,95,0.00,,,0.00,WUHU216DAVISVP2,2013-08-08 12:32:00,
2013-08-08 08:37:00,81.3,79.7,30.00,WNW,297,0.0,1.0,95,0.00,,,0.00,WUHU216DAVISVP2,2013-08-08 12:37:00,
2013-08-08 08:42:00,81.6,79.7,30.00,ENE,63,0.0,1.0,94,0.00,,,0.00,WUHU216DAVISVP2,2013-08-08 12:42:00,
2013-08-08 08:47:00,81.9,79.7,30.00,ENE,63,0.0,1.0,93,0.00,,,0.00,WUHU216DAVISVP2,2013-08-08 12:47:00,
2013-08-08 08:52:00,82.1,79.9,30.00,ENE,59,3.0,3.0,93,0.00,,,0.00,WUHU216DAVISVP2,2013-08-08 12:52:00,
2013-08-08 08:57:00,82.2,79.6,30.00,ENE,61,0.0,3.0,92,0.00,,,0.00,WUHU216DAVISVP2,2013-08-08 12:57:00,
2013-08-08 09:02:00,82.4,79.8,30.00,ENE,61,0.0,3.0,92,0.00,,,0.00,WUHU216DAVISVP2,2013-08-08 13:02:00,
2013-08-08 09:07:00,82.6,80.0,30.01,ENE,61,0.0,2.0,92,0.00,,,0.00,WUHU216DAVISVP2,2013-08-08 13:07:00,
2013-08-08 09:12:00,82.8,80.2,30.01,South,183,0.0,4.0,92,0.00,,,0.00,WUHU216DAVISVP2,2013-08-08 13:12:00,
2013-08-08 09:17:00,83.0,80.1,30.01,SSE,150,0.0,4.0,91,0.00,,,0.00,WUHU216DAVISVP2,2013-08-08 13:17:00,
2013-08-08 09:22:00,83.1,80.2,30.00,South,189,0.0,1.0,91,0.00,,,0.00,WUHU216DAVISVP2,2013-08-08 13:22:00,
2013-08-08 09:27:00,83.3,80.4,30.01,South,189,0.0,1.0,91,0.00,,,0.00,WUHU216DAVISVP2,2013-08-08 13:27:00,
2013-08-08 09:32:00,83.3,80.1,30.01,South,190,0.0,1.0,90,0.00,,,0.00,WUHU216DAVISVP2,2013-08-08 13:32:00,
2013-08-08 09:37:00,83.6,80.7,30.01,South,182,0.0,1.0,91,0.00,,,0.00,WUHU216DAVISVP2,2013-08-08 13:37:00,
2013-08-08 09:42:00,83.7,80.1,30.01,NE,50,0.0,1.0,89,0.00,,,0.00,WUHU216DAVISVP2,2013-08-08 13:42:00,
2013-08-08 09:47:00,83.7,80.5,30.01,NE,53,0.0,1.0,90,0.00,,,0.00,WUHU216DAVISVP2,2013-08-08 13:47:00,
2013-08-08 09:52:00,83.9,80.7,30.01,NE,53,0.0,1.0,90,0.00,,,0.00,WUHU216DAVISVP2,2013-08-08 13:52:00,
2013-08-08 09:57:00,83.9,80.3,30.01,East,84,0.0,3.0,89,0.00,,,0.00,WUHU216DAVISVP2,2013-08-08 13:57:00,
2013-08-08 10:02:00,83.8,79.9,30.01,ESE,109,0.0,3.0,88,0.00,,,0.00,WUHU216DAVISVP2,2013-08-08 14:02:00,
2013-08-08 10:07:00,83.9,80.0,30.01,ESE,111,0.0,2.0,88,0.00,,,0.00,WUHU216DAVISVP2,2013-08-08 14:07:00,
2013-08-08 10:12:00,84.1,80.5,30.02,ESE,110,0.0,1.0,89,0.00,,,0.00,WUHU216DAVISVP2,2013-08-08 14:12:00,
2013-08-08 10:17:00,84.4,80.8,30.02,ESE,110,0.0,1.0,89,0.00,,,0.00,WUHU216DAVISVP2,2013-08-08 14:17:00,
2013-08-08 10:22:00,84.6,81.0,30.02,ESE,110,0.0,1.0,89,0.00,,,0.00,WUHU216DAVISVP2,2013-08-08 14:22:00,
2013-08-08 10:27:00,84.7,80.8,30.02,South,171,0.0,1.0,88,0.00,,,0.00,WUHU216DAVISVP2,2013-08-08 14:27:00,
2013-08-08 10:32:00,84.7,80.4,30.01,SE,146,0.0,2.0,87,0.00,,,0.00,WUHU216DAVISVP2,2013-08-08 14:32:00,
2013-08-08 10:37:00,84.7,80.1,30.02,SE,145,0.0,2.0,86,0.00,,,0.00,WUHU216DAVISVP2,2013-08-08 14:37:00,
2013-08-08 10:42:00,84.8,80.2,30.02,WSW,246,0.0,3.0,86,0.00,,,0.00,WUHU216DAVISVP2,2013-08-08 14:42:00,
2013-08-08 10:47:00,85.1,80.8,30.02,NNE,30,0.0,3.0,87,0.00,,,0.00,WUHU216DAVISVP2,2013-08-08 14:47:00,
2013-08-08 10:52:00,85.3,80.7,30.02,NE,40,0.0,1.0,86,0.00,,,0.00,WUHU216DAVISVP2,2013-08-08 14:52:00,
2013-08-08 10:57:00,85.4,80.4,30.02,NE,46,0.0,1.0,85,0.00,,,0.00,WUHU216DAVISVP2,2013-08-08 14:57:00,
2013-08-08 11:02:00,85.5,80.2,30.02,North,9,0.0,1.0,84,0.00,,,0.00,WUHU216DAVISVP2,2013-08-08 15:02:00,
2013-08-08 11:07:00,85.5,80.2,30.02,South,179,0.0,1.0,84,0.00,,,0.00,WUHU216DAVISVP2,2013-08-08 15:07:00,
2013-08-08 11:12:00,85.5,79.8,30.02,SE,124,0.0,1.0,83,0.00,,,0.00,WUHU216DAVISVP2,2013-08-08 15:12:00,
2013-08-08 11:17:00,85.5,79.5,30.03,ESE,115,0.0,1.0,82,0.00,,,0.00,WUHU216DAVISVP2,2013-08-08 15:17:00,
2013-08-08 11:22:00,85.7,80.0,30.03,SE,131,0.0,1.0,83,0.00,,,0.00,WUHU216DAVISVP2,2013-08-08 15:22:00,
2013-08-08 11:27:00,85.8,79.8,30.03,SE,127,0.0,1.0,82,0.00,,,0.00,WUHU216DAVISVP2,2013-08-08 15:27:00,
2013-08-08 11:32:00,86.0,80.3,30.03,ESE,115,0.0,3.0,83,0.00,,,0.00,WUHU216DAVISVP2,2013-08-08 15:32:00,
2013-08-08 11:37:00,86.1,80.1,30.03,ENE,71,0.0,3.0,82,0.00,,,0.00,WUHU216DAVISVP2,2013-08-08 15:37:00,
2013-08-08 11:42:00,86.3,80.3,30.03,East,97,0.0,5.0,82,0.00,,,0.00,WUHU216DAVISVP2,2013-08-08 15:42:00,
2013-08-08 11:47:00,86.4,80.0,30.03,ENE,68,0.0,5.0,81,0.00,,,0.00,WUHU216DAVISVP2,2013-08-08 15:47:00,
2013-08-08 11:52:00,86.4,80.4,30.03,East,100,0.0,1.0,82,0.00,,,0.00,WUHU216DAVISVP2,2013-08-08 15:52:00,
2013-08-08 11:57:00,86.4,80.4,30.03,ESE,115,0.0,1.0,82,0.00,,,0.00,WUHU216DAVISVP2,2013-08-08 15:57:00,
2013-08-08 12:02:00,86.7,81.0,30.03,NNE,19,0.0,2.0,83,0.00,,,0.00,WUHU216DAVISVP2,2013-08-08 16:02:00,
2013-08-08 12:07:00,86.8,80.4,30.03,NNE,24,0.0,3.0,81,0.00,,,0.00,WUHU216DAVISVP2,2013-08-08 16:07:00,
2013-08-08 12:12:00,86.9,80.5,30.03,East,101,0.0,3.0,81,0.00,,,0.00,WUHU216DAVISVP2,2013-08-08 16:12:00,
2013-08-08 12:17:00,86.9,80.1,30.03,NNW,345,1.0,3.0,80,0.00,,,0.00,WUHU216DAVISVP2,2013-08-08 16:17:00,
2013-08-08 12:22:00,86.9,80.8,30.03,North,349,0.0,3.0,82,0.00,,,0.00,WUHU216DAVISVP2,2013-08-08 16:22:00,
2013-08-08 12:27:00,87.0,80.6,30.03,ENE,69,3.0,3.0,81,0.00,,,0.00,WUHU216DAVISVP2,2013-08-08 16:27:00,
2013-08-08 12:32:00,87.0,80.2,30.03,NE,53,0.0,3.0,80,0.00,,,0.00,WUHU216DAVISVP2,2013-08-08 16:32:00,
2013-08-08 12:37:00,87.3,80.9,30.03,SSE,152,0.0,3.0,81,0.00,,,0.00,WUHU216DAVISVP2,2013-08-08 16:37:00,
2013-08-08 12:42:00,87.5,80.7,30.03,West,273,1.0,2.0,80,0.00,,,0.00,WUHU216DAVISVP2,2013-08-08 16:42:00,
2013-08-08 12:47:00,87.8,80.6,30.03,SSE,156,0.0,3.0,79,0.00,,,0.00,WUHU216DAVISVP2,2013-08-08 16:47:00,
2013-08-08 12:52:00,87.9,80.7,30.03,NE,41,0.0,4.0,79,0.00,,,0.00,WUHU216DAVISVP2,2013-08-08 16:52:00,
2013-08-08 12:57:00,88.1,80.9,30.03,SSE,147,0.0,4.0,79,0.00,,,0.00,WUHU216DAVISVP2,2013-08-08 16:57:00,
2013-08-08 13:02:00,87.9,80.4,30.03,East,79,0.0,3.0,78,0.00,,,0.00,WUHU216DAVISVP2,2013-08-08 17:02:00,
2013-08-08 13:07:00,87.8,80.6,30.03,ENE,77,0.0,4.0,79,0.00,,,0.00,WUHU216DAVISVP2,2013-08-08 17:07:00,
2013-08-08 13:12:00,87.9,80.0,30.03,East,88,0.0,4.0,77,0.00,,,0.00,WUHU216DAVISVP2,2013-08-08 17:12:00,
2013-08-08 13:17:00,88.2,79.9,30.03,ENE,77,5.0,5.0,76,0.00,,,0.00,WUHU216DAVISVP2,2013-08-08 17:17:00,
2013-08-08 13:22:00,87.7,79.8,30.03,East,94,0.0,5.0,77,0.00,,,0.00,WUHU216DAVISVP2,2013-08-08 17:22:00,
2013-08-08 13:27:00,87.3,79.0,30.03,SE,132,0.0,5.0,76,0.00,,,0.00,WUHU216DAVISVP2,2013-08-08 17:27:00,
2013-08-08 13:32:00,87.4,80.2,30.03,East,101,0.0,3.0,79,0.00,,,0.00,WUHU216DAVISVP2,2013-08-08 17:32:00,
2013-08-08 13:37:00,87.5,80.3,30.03,NE,42,0.0,3.0,79,0.00,,,0.00,WUHU216DAVISVP2,2013-08-08 17:37:00,
2013-08-08 13:42:00,87.7,80.9,30.02,NE,51,0.0,3.0,80,0.00,,,0.00,WUHU216DAVISVP2,2013-08-08 17:42:00,
2013-08-08 13:47:00,88.0,79.7,30.02,NE,54,0.0,3.0,76,0.00,,,0.00,WUHU216DAVISVP2,2013-08-08 17:47:00,
2013-08-08 13:52:00,88.3,79.6,30.02,East,85,0.0,2.0,75,0.00,,,0.00,WUHU216DAVISVP2,2013-08-08 17:52:00,
2013-08-08 13:57:00,87.9,79.6,30.02,NE,50,0.0,1.0,76,0.00,,,0.00,WUHU216DAVISVP2,2013-08-08 17:57:00,
2013-08-08 14:02:00,87.4,79.5,30.01,NE,46,0.0,3.0,77,0.00,,,0.00,WUHU216DAVISVP2,2013-08-08 18:02:00,
2013-08-08 14:07:00,87.3,79.8,30.02,ENE,59,1.0,3.0,78,0.00,,,0.00,WUHU216DAVISVP2,2013-08-08 18:07:00,
2013-08-08 14:12:00,87.4,79.9,30.02,WNW,300,0.0,3.0,78,0.00,,,0.00,WUHU216DAVISVP2,2013-08-08 18:12:00,
2013-08-08 14:17:00,87.5,80.3,30.02,NE,42,0.0,3.0,79,0.00,,,0.00,WUHU216DAVISVP2,2013-08-08 18:17:00,
2013-08-08 14:22:00,87.8,80.3,30.02,WNW,300,0.0,2.0,78,0.00,,,0.00,WUHU216DAVISVP2,2013-08-08 18:22:00,
2013-08-08 14:27:00,88.2,80.6,30.02,NE,54,1.0,2.0,78,0.00,,,0.00,WUHU216DAVISVP2,2013-08-08 18:27:00,
2013-08-08 14:32:00,88.7,80.7,30.02,ENE,78,1.0,2.0,77,0.00,,,0.00,WUHU216DAVISVP2,2013-08-08 18:32:00,
2013-08-08 14:37:00,88.6,80.3,30.01,East,92,0.0,4.0,76,0.00,,,0.00,WUHU216DAVISVP2,2013-08-08 18:37:00,
2013-08-08 14:42:00,88.4,80.8,30.01,NE,53,1.0,4.0,78,0.00,,,0.00,WUHU216DAVISVP2,2013-08-08 18:42:00,
2013-08-08 14:47:00,88.2,80.3,30.01,ENE,59,0.0,2.0,77,0.00,,,0.00,WUHU216DAVISVP2,2013-08-08 18:47:00,
2013-08-08 14:52:00,87.9,80.7,30.01,SSW,213,0.0,3.0,79,0.00,,,0.00,WUHU216DAVISVP2,2013-08-08 18:52:00,
2013-08-08 14:57:00,88.3,80.7,30.01,East,101,0.0,3.0,78,0.00,,,0.00,WUHU216DAVISVP2,2013-08-08 18:57:00,
2013-08-08 15:02:00,88.2,80.6,30.01,NNW,333,1.0,3.0,78,0.00,,,0.00,WUHU216DAVISVP2,2013-08-08 19:02:00,
2013-08-08 15:03:00,88.2,80.6,30.01,NNE,13,0.0,3.0,78,0.00,,,0.00,WUHU216DAVISVP2,2013-08-08 19:03:00,
2013-08-08 15:08:00,88.1,80.5,30.01,NNE,29,0.0,3.0,78,0.00,,,0.00,WUHU216DAVISVP2,2013-08-08 19:08:00,
2013-08-08 15:13:00,88.1,80.5,30.01,ENE,57,0.0,3.0,78,0.00,,,0.00,WUHU216DAVISVP2,2013-08-08 19:13:00,
2013-08-08 15:18:00,88.2,80.3,30.01,East,80,0.0,4.0,77,0.00,,,0.00,WUHU216DAVISVP2,2013-08-08 19:18:00,
2013-08-08 15:23:00,88.0,80.8,30.01,ENE,70,0.0,4.0,79,0.00,,,0.00,WUHU216DAVISVP2,2013-08-08 19:23:00,
2013-08-08 15:28:00,87.8,80.6,30.01,ENE,71,0.0,4.0,79,0.00,,,0.00,WUHU216DAVISVP2,2013-08-08 19:28:00,
2013-08-08 15:33:00,87.6,80.1,30.01,East,84,0.0,3.0,78,0.00,,,0.00,WUHU216DAVISVP2,2013-08-08 19:33:00,
2013-08-08 15:38:00,87.8,80.6,30.00,East,101,0.0,3.0,79,0.00,,,0.00,WUHU216DAVISVP2,2013-08-08 19:38:00,
2013-08-08 15:43:00,88.1,80.5,30.00,North,360,0.0,7.0,78,0.00,,,0.00,WUHU216DAVISVP2,2013-08-08 19:43:00,
2013-08-08 15:48:00,88.1,80.5,30.00,East,82,1.0,7.0,78,0.00,,,0.00,WUHU216DAVISVP2,2013-08-08 19:48:00,
2013-08-08 15:53:00,87.6,79.7,30.00,East,95,0.0,4.0,77,0.00,,,0.00,WUHU216DAVISVP2,2013-08-08 19:53:00,
2013-08-08 15:58:00,87.1,79.9,30.00,West,263,0.0,4.0,79,0.00,,,0.00,WUHU216DAVISVP2,2013-08-08 19:58:00,
2013-08-08 16:03:00,87.2,80.0,30.00,ENE,71,0.0,4.0,79,0.00,,,0.00,WUHU216DAVISVP2,2013-08-08 20:03:00,
2013-08-08 16:08:00,87.1,80.3,30.00,East,93,0.0,3.0,80,0.00,,,0.00,WUHU216DAVISVP2,2013-08-08 20:08:00,
2013-08-08 16:13:00,87.3,80.1,30.00,ENE,71,1.0,3.0,79,0.00,,,0.00,WUHU216DAVISVP2,2013-08-08 20:13:00,
2013-08-08 16:18:00,87.2,80.0,30.00,ENE,77,0.0,3.0,79,0.00,,,0.00,WUHU216DAVISVP2,2013-08-08 20:18:00,
2013-08-08 16:23:00,87.0,80.2,30.00,East,85,0.0,3.0,80,0.00,,,0.00,WUHU216DAVISVP2,2013-08-08 20:23:00,
2013-08-08 16:28:00,86.7,80.3,30.00,SW,220,1.0,3.0,81,0.00,,,0.00,WUHU216DAVISVP2,2013-08-08 20:28:00,
2013-08-08 16:33:00,86.4,79.6,30.00,ENE,70,0.0,4.0,80,0.00,,,0.00,WUHU216DAVISVP2,2013-08-08 20:33:00,
2013-08-08 16:38:00,86.4,80.0,30.00,NE,51,0.0,7.0,81,0.00,,,0.00,WUHU216DAVISVP2,2013-08-08 20:38:00,
2013-08-08 16:43:00,86.6,80.2,30.00,WNW,287,0.0,7.0,81,0.00,,,0.00,WUHU216DAVISVP2,2013-08-08 20:43:00,
2013-08-08 16:48:00,86.8,80.0,30.00,NE,34,0.0,4.0,80,0.00,,,0.00,WUHU216DAVISVP2,2013-08-08 20:48:00,
2013-08-08 16:53:00,86.4,79.6,30.00,SSE,157,0.0,4.0,80,0.00,,,0.00,WUHU216DAVISVP2,2013-08-08 20:53:00,
2013-08-08 16:58:00,85.9,79.9,30.00,East,80,0.0,3.0,82,0.00,,,0.00,WUHU216DAVISVP2,2013-08-08 20:58:00,
2013-08-08 17:03:00,85.3,79.6,30.01,NE,34,0.0,3.0,83,0.00,,,0.00,WUHU216DAVISVP2,2013-08-08 21:03:00,
2013-08-08 17:08:00,85.1,79.4,30.01,East,79,0.0,4.0,83,0.00,,,0.00,WUHU216DAVISVP2,2013-08-08 21:08:00,
2013-08-08 17:13:00,84.8,79.5,30.01,NE,55,0.0,4.0,84,0.00,,,0.00,WUHU216DAVISVP2,2013-08-08 21:13:00,
2013-08-08 17:18:00,84.7,79.4,30.00,ENE,70,0.0,3.0,84,0.00,,,0.00,WUHU216DAVISVP2,2013-08-08 21:18:00,
2013-08-08 17:24:00,84.6,79.3,30.00,East,101,0.0,3.0,84,0.00,,,0.00,WUHU216DAVISVP2,2013-08-08 21:24:00,
2013-08-08 17:29:00,84.5,79.6,30.00,East,88,0.0,3.0,85,0.00,,,0.00,WUHU216DAVISVP2,2013-08-08 21:29:00,
2013-08-08 17:34:00,84.6,79.7,30.00,ENE,74,0.0,1.0,85,0.00,,,0.00,WUHU216DAVISVP2,2013-08-08 21:34:00,
2013-08-08 17:39:00,84.6,79.3,30.00,ENE,61,0.0,3.0,84,0.00,,,0.00,WUHU216DAVISVP2,2013-08-08 21:39:00,
2013-08-08 17:44:00,84.6,79.7,29.99,ENE,61,0.0,3.0,85,0.00,,,0.00,WUHU216DAVISVP2,2013-08-08 21:44:00,
2013-08-08 17:50:00,84.6,79.3,29.99,NNE,26,2.0,4.0,84,0.00,,,0.00,WUHU216DAVISVP2,2013-08-08 21:50:00,
2013-08-08 17:55:00,84.5,79.2,29.99,ENE,73,0.0,4.0,84,0.00,,,0.00,WUHU216DAVISVP2,2013-08-08 21:55:00,
2013-08-08 18:00:00,84.6,79.7,29.99,East,84,1.0,3.0,85,0.00,,,0.00,WUHU216DAVISVP2,2013-08-08 22:00:00,
2013-08-08 18:06:00,84.7,79.8,29.99,NE,34,0.0,3.0,85,0.00,,,0.00,WUHU216DAVISVP2,2013-08-08 22:06:00,
2013-08-08 18:11:00,84.9,79.9,29.99,ESE,109,0.0,2.0,85,0.00,,,0.00,WUHU216DAVISVP2,2013-08-08 22:11:00,
2013-08-08 18:16:00,85.1,80.1,29.98,ESE,109,0.0,2.0,85,0.00,,,0.00,WUHU216DAVISVP2,2013-08-08 22:16:00,
2013-08-08 18:21:00,85.2,79.9,29.98,ESE,103,0.0,3.0,84,0.00,,,0.00,WUHU216DAVISVP2,2013-08-08 22:21:00,
2013-08-08 18:26:00,85.1,79.8,29.98,ENE,76,1.0,4.0,84,0.00,,,0.00,WUHU216DAVISVP2,2013-08-08 22:26:00,
2013-08-08 18:31:00,84.9,79.6,29.99,NE,38,0.0,4.0,84,0.00,,,0.00,WUHU216DAVISVP2,2013-08-08 22:31:00,
2013-08-08 18:36:00,84.7,79.8,29.98,South,169,0.0,4.0,85,0.00,,,0.00,WUHU216DAVISVP2,2013-08-08 22:36:00,
2013-08-08 18:41:00,84.5,79.6,29.98,East,93,2.0,4.0,85,0.00,,,0.00,WUHU216DAVISVP2,2013-08-08 22:41:00,
2013-08-08 18:47:00,84.4,79.5,29.98,ENE,69,0.0,4.0,85,0.00,,,0.00,WUHU216DAVISVP2,2013-08-08 22:47:00,
2013-08-08 18:52:00,84.4,79.5,29.98,ENE,69,0.0,4.0,85,0.00,,,0.00,WUHU216DAVISVP2,2013-08-08 22:52:00,
2013-08-08 18:57:00,84.3,79.7,29.98,ENE,76,2.0,4.0,86,0.00,,,0.00,WUHU216DAVISVP2,2013-08-08 22:57:00,
2013-08-08 19:02:00,84.2,79.6,29.98,ENE,76,0.0,4.0,86,0.00,,,0.00,WUHU216DAVISVP2,2013-08-08 23:02:00,
2013-08-08 19:07:00,84.1,79.2,29.98,East,84,0.0,3.0,85,0.00,,,0.00,WUHU216DAVISVP2,2013-08-08 23:07:00,
2013-08-08 19:12:00,83.9,79.0,29.98,NE,56,0.0,4.0,85,0.00,,,0.00,WUHU216DAVISVP2,2013-08-08 23:12:00,
2013-08-08 19:17:00,83.9,79.3,29.98,ENE,57,2.0,4.0,86,0.00,,,0.00,WUHU216DAVISVP2,2013-08-08 23:17:00,
2013-08-08 19:22:00,83.7,78.8,29.98,ENE,70,0.0,3.0,85,0.00,,,0.00,WUHU216DAVISVP2,2013-08-08 23:22:00,
2013-08-08 19:27:00,83.6,79.0,29.98,NE,54,0.0,3.0,86,0.00,,,0.00,WUHU216DAVISVP2,2013-08-08 23:27:00,
2013-08-08 19:32:00,83.4,78.8,29.99,East,82,0.0,2.0,86,0.00,,,0.00,WUHU216DAVISVP2,2013-08-08 23:32:00,
2013-08-08 19:37:00,83.3,79.1,29.99,East,82,1.0,2.0,87,0.00,,,0.00,WUHU216DAVISVP2,2013-08-08 23:37:00,
2013-08-08 19:42:00,83.2,79.0,29.99,NE,47,0.0,2.0,87,0.00,,,0.00,WUHU216DAVISVP2,2013-08-08 23:42:00,
2013-08-08 19:47:00,83.1,78.9,29.99,NE,51,0.0,2.0,87,0.00,,,0.00,WUHU216DAVISVP2,2013-08-08 23:47:00,
2013-08-08 19:52:00,83.0,78.8,30.00,NE,51,0.0,1.0,87,0.00,,,0.00,WUHU216DAVISVP2,2013-08-08 23:52:00,
2013-08-08 19:58:00,83.0,78.8,30.00,NE,56,0.0,1.0,87,0.00,,,0.00,WUHU216DAVISVP2,2013-08-08 23:58:00,
2013-08-08 20:03:00,83.0,78.8,30.00,NE,56,0.0,1.0,87,0.00,,,0.00,WUHU216DAVISVP2,2013-08-09 00:03:00,
2013-08-08 20:08:00,82.9,78.7,30.00,ESE,105,0.0,4.0,87,0.00,,,0.00,WUHU216DAVISVP2,2013-08-09 00:08:00,
2013-08-08 20:13:00,82.8,78.6,30.01,ESE,105,0.0,4.0,87,0.00,,,0.00,WUHU216DAVISVP2,2013-08-09 00:13:00,
2013-08-08 20:18:00,82.8,78.9,30.01,ESE,105,0.0,1.0,88,0.00,,,0.00,WUHU216DAVISVP2,2013-08-09 00:18:00,
2013-08-08 20:23:00,82.8,78.9,30.01,ESE,106,0.0,1.0,88,0.00,,,0.00,WUHU216DAVISVP2,2013-08-09 00:23:00,
2013-08-08 20:29:00,82.7,78.8,30.02,ESE,106,0.0,1.0,88,0.00,,,0.00,WUHU216DAVISVP2,2013-08-09 00:29:00,
2013-08-08 20:34:00,82.7,78.8,30.02,ESE,105,0.0,1.0,88,0.00,,,0.00,WUHU216DAVISVP2,2013-08-09 00:34:00,
2013-08-08 20:39:00,82.7,78.8,30.02,ESE,105,0.0,1.0,88,0.00,,,0.00,WUHU216DAVISVP2,2013-08-09 00:39:00,
2013-08-08 20:44:00,82.7,78.8,30.01,ESE,105,0.0,1.0,88,0.00,,,0.00,WUHU216DAVISVP2,2013-08-09 00:44:00,
2013-08-08 20:49:00,82.6,78.7,30.02,NE,50,0.0,4.0,88,0.00,,,0.00,WUHU216DAVISVP2,2013-08-09 00:49:00,
2013-08-08 20:54:00,82.6,78.7,30.02,NE,51,0.0,4.0,88,0.00,,,0.00,WUHU216DAVISVP2,2013-08-09 00:54:00,
2013-08-08 21:00:00,82.5,78.6,30.02,South,176,0.0,3.0,88,0.00,,,0.00,WUHU216DAVISVP2,2013-08-09 01:00:00,
2013-08-08 21:05:00,82.6,78.7,30.02,ENE,74,0.0,3.0,88,0.00,,,0.00,WUHU216DAVISVP2,2013-08-09 01:05:00,
2013-08-08 21:10:00,82.6,78.7,30.03,ENE,74,0.0,3.0,88,0.00,,,0.00,WUHU216DAVISVP2,2013-08-09 01:10:00,
2013-08-08 21:15:00,82.6,78.7,30.03,NNW,341,0.0,1.0,88,0.00,,,0.00,WUHU216DAVISVP2,2013-08-09 01:15:00,
2013-08-08 21:20:00,82.5,78.6,30.03,NE,56,0.0,1.0,88,0.00,,,0.00,WUHU216DAVISVP2,2013-08-09 01:20:00,
2013-08-08 21:25:00,82.4,78.5,30.03,ENE,57,0.0,1.0,88,0.00,,,0.00,WUHU216DAVISVP2,2013-08-09 01:25:00,
2013-08-08 21:30:00,82.4,78.5,30.04,NE,50,0.0,1.0,88,0.00,,,0.00,WUHU216DAVISVP2,2013-08-09 01:30:00,
2013-08-08 21:35:00,82.4,78.5,30.04,NE,50,0.0,1.0,88,0.00,,,0.00,WUHU216DAVISVP2,2013-08-09 01:35:00,
2013-08-08 21:40:00,82.4,78.2,30.04,NE,50,0.0,1.0,87,0.00,,,0.00,WUHU216DAVISVP2,2013-08-09 01:40:00,
2013-08-08 21:46:00,82.4,78.2,30.04,NE,49,0.0,1.0,87,0.00,,,0.00,WUHU216DAVISVP2,2013-08-09 01:46:00,
2013-08-08 21:51:00,82.3,78.1,30.05,NE,47,0.0,1.0,87,0.00,,,0.00,WUHU216DAVISVP2,2013-08-09 01:51:00,
2013-08-08 21:56:00,82.3,78.1,30.05,NE,47,0.0,2.0,87,0.00,,,0.00,WUHU216DAVISVP2,2013-08-09 01:56:00,
2013-08-08 22:01:00,82.3,78.4,30.05,NE,47,0.0,2.0,88,0.00,,,0.00,WUHU216DAVISVP2,2013-08-09 02:01:00,
2013-08-08 22:06:00,82.3,78.4,30.05,NNE,33,0.0,0.0,88,0.00,,,0.00,WUHU216DAVISVP2,2013-08-09 02:06:00,
2013-08-08 22:11:00,82.3,78.4,30.05,NNE,33,0.0,0.0,88,0.00,,,0.00,WUHU216DAVISVP2,2013-08-09 02:11:00,
2013-08-08 22:16:00,82.3,78.4,30.05,NNW,343,1.0,2.0,88,0.00,,,0.00,WUHU216DAVISVP2,2013-08-09 02:16:00,
2013-08-08 22:22:00,82.2,78.3,30.05,North,11,0.0,2.0,88,0.00,,,0.00,WUHU216DAVISVP2,2013-08-09 02:22:00,
2013-08-08 22:26:00,82.2,78.0,30.05,NE,41,0.0,2.0,87,0.00,,,0.00,WUHU216DAVISVP2,2013-08-09 02:26:00,
2013-08-08 22:32:00,82.2,78.3,30.05,ENE,58,0.0,2.0,88,0.00,,,0.00,WUHU216DAVISVP2,2013-08-09 02:32:00,
2013-08-08 22:37:00,82.2,78.0,30.05,NE,52,0.0,2.0,87,0.00,,,0.00,WUHU216DAVISVP2,2013-08-09 02:37:00,
2013-08-08 22:42:00,82.2,78.3,30.05,NE,53,1.0,2.0,88,0.00,,,0.00,WUHU216DAVISVP2,2013-08-09 02:42:00,
2013-08-08 22:47:00,82.2,78.3,30.05,SE,139,0.0,3.0,88,0.00,,,0.00,WUHU216DAVISVP2,2013-08-09 02:47:00,
2013-08-08 22:52:00,82.2,78.3,30.05,SE,138,0.0,3.0,88,0.00,,,0.00,WUHU216DAVISVP2,2013-08-09 02:52:00,
2013-08-08 22:57:00,82.2,78.3,30.06,SE,141,0.0,1.0,88,0.00,,,0.00,WUHU216DAVISVP2,2013-08-09 02:57:00,
2013-08-08 23:02:00,82.1,78.2,30.06,SSW,194,0.0,0.0,88,0.00,,,0.00,WUHU216DAVISVP2,2013-08-09 03:02:00,
2013-08-08 23:07:00,82.1,78.2,30.06,SSW,194,1.0,1.0,88,0.00,,,0.00,WUHU216DAVISVP2,2013-08-09 03:07:00,
2013-08-08 23:12:00,82.1,78.2,30.07,South,189,0.0,1.0,88,0.00,,,0.00,WUHU216DAVISVP2,2013-08-09 03:12:00,
2013-08-08 23:17:00,82.0,78.1,30.06,ESE,112,0.0,1.0,88,0.00,,,0.00,WUHU216DAVISVP2,2013-08-09 03:17:00,
2013-08-08 23:22:00,82.0,78.1,30.06,ESE,113,0.0,1.0,88,0.00,,,0.00,WUHU216DAVISVP2,2013-08-09 03:22:00,
2013-08-08 23:27:00,82.0,78.1,30.06,ESE,105,1.0,1.0,88,0.00,,,0.00,WUHU216DAVISVP2,2013-08-09 03:27:00,
2013-08-08 23:33:00,82.0,78.4,30.06,ESE,106,0.0,1.0,89,0.00,,,0.00,WUHU216DAVISVP2,2013-08-09 03:33:00,
2013-08-08 23:38:00,82.0,78.4,30.06,ESE,105,0.0,1.0,89,0.00,,,0.00,WUHU216DAVISVP2,2013-08-09 03:38:00,
2013-08-08 23:43:00,82.0,78.4,30.06,East,95,0.0,2.0,89,0.00,,,0.00,WUHU216DAVISVP2,2013-08-09 03:43:00,
2013-08-08 23:48:00,81.9,78.0,30.05,East,95,0.0,2.0,88,0.00,,,0.00,WUHU216DAVISVP2,2013-08-09 03:48:00,
2013-08-08 23:53:00,81.9,78.3,30.06,East,96,0.0,1.0,89,0.00,,,0.00,WUHU216DAVISVP2,2013-08-09 03:53:00,
2013-08-08 23:58:00,81.9,78.3,30.06,East,96,0.0,1.0,89,0.00,,,0.00,WUHU216DAVISVP2,2013-08-09 03:58:00,